FBD1555 VNLK-VNLK

Flight info

Callsign FBD1555
Flight time 0h 5m
Altitude 12500
Route CHURE/N0180F135
Aircraft DA62/L-SDFGRY/C

Departure

Time 2026-04-14 06:16
Airport Tenzing-Hillary Airport (VNLK)

Arrival

Time 2026-04-14 06:21
Airport Tenzing-Hillary Airport (VNLK)
Time Latitude Longitude Altitude Speed Heading
2026-04-14 06:11 27.68745 86.73145 9430 ft 0 kts 63°
2026-04-14 06:14 27.68762 86.73159 9429 ft 4 kts
2026-04-14 06:14 27.68774 86.73155 9376 ft 0 kts 326°
2026-04-14 06:15 27.68757 86.73105 9359 ft 31 kts 237°
2026-04-14 06:15 27.68503 86.72615 9172 ft 104 kts 239°
2026-04-14 06:15 27.68121 86.71904 9438 ft 107 kts 243°
2026-04-14 06:15 27.67746 86.71145 9726 ft 114 kts 244°
2026-04-14 06:16 27.67287 86.70428 10023 ft 116 kts 229°
2026-04-14 06:16 27.66524 86.70257 10341 ft 125 kts 171°
2026-04-14 06:16 27.66492 86.69693 10464 ft 122 kts 335°
2026-04-14 06:16 27.67299 86.69715 10479 ft 132 kts
2026-04-14 06:17 27.67961 86.69920 10812 ft 120 kts 320°
2026-04-14 06:17 27.68759 86.69472 10604 ft 143 kts 17°
2026-04-14 06:17 27.68828 86.70519 10017 ft 171 kts 98°
2026-04-14 06:17 27.68319 86.71749 9561 ft 159 kts 120°
2026-04-14 06:18 27.68570 86.72737 9857 ft 135 kts 51°
2026-04-14 06:18 27.68867 86.73212 10089 ft 90 kts 36°
2026-04-14 06:18 27.69577 86.72945 10130 ft 159 kts 304°
2026-04-14 06:18 27.68942 86.72349 9323 ft 188 kts 182°
2026-04-14 06:19 27.68700 86.73037 9992 ft 150 kts 88°
2026-04-14 06:19 27.68441 86.74035 10382 ft 137 kts 134°
2026-04-14 06:19 27.67630 86.74628 10650 ft 131 kts 179°
2026-04-14 06:19 27.66920 86.74188 10987 ft 125 kts 224°
2026-04-14 06:20 27.66680 86.73100 10348 ft 181 kts 266°
2026-04-14 06:20 27.67083 86.72157 10523 ft 143 kts 360°
2026-04-14 06:20 27.67978 86.72929 9752 ft 156 kts 10°
2026-04-14 06:20 27.68173 86.72158 9201 ft 162 kts 239°
2026-04-14 06:21 27.67385 86.71204 9371 ft 163 kts 227°
2026-04-14 06:21 27.66330 86.70442 8162 ft 215 kts 196°
2026-04-14 06:21 27.65302 86.70749 9732 ft 21 kts 108°
2026-04-14 06:21 27.65316 86.70714 9508 ft 22 kts 265°
2026-04-14 06:22 27.64377 86.70026 7283 ft 150 kts 210°
2026-04-14 06:22 27.63240 86.69743 6140 ft 195 kts 191°
2026-04-14 06:22 27.61999 86.69613 6213 ft 165 kts 188°
2026-04-14 06:22 27.61008 86.69365 6498 ft 132 kts 213°
2026-04-14 06:23 27.60767 86.68480 6840 ft 125 kts 296°
2026-04-14 06:23 27.61370 86.68427 7332 ft 114 kts 46°
2026-04-14 06:23 27.62026 86.69183 7330 ft 136 kts 13°
2026-04-14 06:23 27.62793 86.68927 7912 ft 101 kts 330°
2026-04-14 06:24 27.63439 86.68779 8313 ft 94 kts
2026-04-14 06:24 27.64078 86.68973 8580 ft 95 kts 40°
2026-04-14 06:24 27.64628 86.69398 8625 ft 117 kts 21°
2026-04-14 06:24 27.65424 86.69698 8791 ft 137 kts 340°
2026-04-14 06:25 27.66145 86.69166 9334 ft 118 kts 327°
2026-04-14 06:25 27.66778 86.69378 9485 ft 125 kts 88°
2026-04-14 06:25 27.67115 86.70403 9209 ft 141 kts 44°
2026-04-14 06:25 27.67758 86.71130 9187 ft 127 kts 53°
2026-04-14 06:26 27.68172 86.71958 9086 ft 118 kts 56°
2026-04-14 06:26 27.69170 86.73250 10094 ft 110 kts 279°
2026-04-14 06:26 27.68730 86.72869 9738 ft 152 kts 207°
2026-04-14 06:27 27.67988 86.71902 9630 ft 166 kts 243°
2026-04-14 06:27 27.67392 86.70785 9805 ft 168 kts 238°
2026-04-14 06:27 27.66666 86.69723 9903 ft 174 kts 228°
2026-04-14 06:27 27.66294 86.68815 10865 ft 98 kts 324°
2026-04-14 06:28 27.67135 86.68953 9934 ft 195 kts 62°
2026-04-14 06:28 27.67511 86.70302 9888 ft 185 kts 57°
2026-04-14 06:28 27.67933 86.71545 9339 ft 149 kts 80°
2026-04-14 06:28 27.68364 86.72379 9150 ft 116 kts 51°
2026-04-14 06:29 27.68704 86.72988 9302 ft 44 kts 59°
2026-04-14 06:29 27.68734 86.73044 9330 ft 0 kts 60°